Scottsdale, AZ

3:20 AM MST on February 25, 2017 (GMT -0700)
Scottsdale

Weather History for KSDL - March, 2014

Change the Weather History Date:

Friday, March 14, 2014

  Actual Average Record
Temperature  
Mean Temperature 68 °F -  
Max Temperature 75 °F 73 °F 91 °F (2013)
Min Temperature 61 °F 50 °F 39 °F (2006)
Cooling Degree Days 4    
Growing Degree Days 18 (Base 50)    
Moisture  
Dew Point 35 °F    
Average Humidity 31    
Maximum Humidity 50    
Minimum Humidity 21    
Precipitation  
Precipitation 0.00 in - - ()
Sea Level Pressure  
Sea Level Pressure 29.91 in    
Wind  
Wind Speed 4 mph (ESE)    
Max Wind Speed 10 mph    
Max Gust Speed -    
Visibility 10 miles    
Events      
Averages and records for this station are not official NWS values.
T = Trace of Precipitation, MM = Missing Value Source: NWS Daily Summary

Daily Weather History Graph

Daily Weather History Graph

Search for Another Location

Airport or City:

Trip Planner

Search our weather history database for the weather conditions in past years. The results will help you decide how hot, cold, wet, or windy it might be!

Date:

Astronomy

Mar. 14, 2014 Rise Set
Actual Time 6:39 AM MST 6:34 PM MST
Civil Twilight 6:14 AM MST 6:59 PM MST
Nautical Twilight 5:45 AM MST 7:28 PM MST
Astronomical Twilight 5:16 AM MST 7:57 PM MST
Moon 5:03 PM MST (3/14) 5:17 AM MST (3/14)
Length of Visible Light 12h 45m
Length of Day
11h 55m
Waxing Gibbous, 96% of the Moon is Illuminated
Mar 14
Waxing Gibbous
Mar 16
Full
Mar 23
Last Quarter
Mar 30
New
Apr 7
First Quarter

Hourly Weather History & Observations

Time (MST) Temp. Dew Point Humidity Pressure Visibility Wind Dir Wind Speed Gust Speed Precip Events Conditions
12:53 AM 71.1 °F 30.9 °F 23% 29.79 in 10.0 mi North 4.6 mph - N/A   Scattered Clouds
1:53 AM 68.0 °F 32.0 °F 26% 29.81 in 10.0 mi West 8.1 mph - N/A   Mostly Cloudy
2:53 AM 66.9 °F 34.0 °F 30% 29.81 in 10.0 mi WNW 4.6 mph - N/A   Clear
3:53 AM 63.0 °F 36.0 °F 37% 29.82 in 10.0 mi Variable 3.5 mph - N/A   Partly Cloudy
4:53 AM 63.0 °F 36.0 °F 37% 29.83 in 10.0 mi Calm Calm - N/A   Mostly Cloudy
5:53 AM 62.1 °F 37.0 °F 39% 29.85 in 10.0 mi ESE 5.8 mph - N/A   Mostly Cloudy
6:53 AM 62.1 °F 33.1 °F 34% 29.87 in 10.0 mi Calm Calm - N/A   Mostly Cloudy
7:53 AM 62.1 °F 33.1 °F 34% 29.91 in 10.0 mi South 4.6 mph - N/A   Partly Cloudy
8:53 AM 64.9 °F 33.1 °F 31% 29.94 in 10.0 mi Variable 4.6 mph - N/A   Overcast
9:53 AM 66.9 °F 33.1 °F 28% 29.96 in 10.0 mi SE 6.9 mph - N/A   Mostly Cloudy
10:53 AM 70.0 °F 30.9 °F 24% 29.96 in 10.0 mi East 5.8 mph - N/A   Partly Cloudy
11:53 AM 72.0 °F 30.9 °F 22% 29.95 in 10.0 mi Variable 4.6 mph - N/A   Clear
12:53 PM 73.9 °F 33.1 °F 22% 29.94 in 10.0 mi Calm Calm - N/A   Clear
1:53 PM 75.0 °F 33.1 °F 22% 29.92 in 10.0 mi NNW 6.9 mph - N/A   Scattered Clouds
2:53 PM 75.0 °F 32.0 °F 21% 29.91 in 10.0 mi Calm Calm - N/A   Scattered Clouds
3:53 PM 73.9 °F 30.9 °F 21% 29.93 in 10.0 mi Variable 3.5 mph - N/A   Overcast
4:53 PM 70.0 °F 39.0 °F 32% 29.93 in 10.0 mi East 10.4 mph - N/A   Partly Cloudy
5:53 PM 71.1 °F 37.9 °F 30% 29.94 in 10.0 mi ESE 5.8 mph - N/A   Partly Cloudy
6:53 PM 70.0 °F 37.0 °F 30% 29.95 in 10.0 mi Calm Calm - N/A   Partly Cloudy
7:53 PM 68.0 °F 39.0 °F 35% 29.96 in 10.0 mi Calm Calm - N/A   Partly Cloudy
8:53 PM 66.9 °F 39.9 °F 37% 29.98 in 10.0 mi Calm Calm - N/A   Clear
9:53 PM 64.0 °F 41.0 °F 43% 29.98 in 10.0 mi Calm Calm - N/A   Clear
10:53 PM 63.0 °F 41.0 °F 45% 29.99 in 10.0 mi West 3.5 mph - N/A   Clear
11:53 PM 61.0 °F 42.1 °F 50% 30.00 in 10.0 mi Calm Calm - N/A   Clear